Flag Weather past 2 weeks in Riverside, California, U.S.A.

Now
55 °F

Sunny.


Feels Like: 54 °F
Forecast: 51 / 87 °F
Wind: 6 mph from Northeast

Location: Riverside Municipal Airport

Current Time: Nov 27, 2014 at 8:17:18 AM

Latest Report: Nov 27, 2014 at 6:53 AM


Visibility: 10 mi

Pressure: 30.11 "Hg

Humidity: 31%

Dew point: 25 °F

Location of RiversideLocation

Historic Weather in Riverside — Graph

°F

Riverside temperature yesterday

Maximum temperature yesterday: 90 °F (at 2:53 PM)
Minimum temperature yesterday: 48 °F (at 3:53 AM)
Average temperature yesterday: 66 °F

Past Weeks' High & Low Weather Summary

 TemperatureHumidityPressure
High90 °F (Nov 26, 2:53 PM)93% (Nov 21, 2:53 AM)30.38 "Hg (Nov 21, 2:53 AM)
Low44 °F (Nov 25, 6:53 AM)4% (Nov 16, 11:53 AM)29.89 "Hg (Nov 21, 1:53 PM)
Average62 °F44%30.07 "Hg
* Reported Nov 12 6:53 AM — Nov 27 6:53 AM, Riverside, Weather by CustomWeather, © 2014

Note: Actual official high and low records may vary slightly from our data, if they occured in-between our weather recording intervals... More about our weather records

Advertising

Riverside weather history for previous 24 hours

 ConditionsComfort  
Time TempWeatherWind HumidityBarometerVisibility
6:53 AM
Nov 27
55 °FSunny.6 mph31%30.11 "Hg10 mi
5:53 AM56 °FClear.7 mph30%30.10 "Hg10 mi
4:53 AM56 °FClear.6 mph30%30.08 "Hg10 mi
3:53 AM58 °FClear.5 mph28%30.07 "Hg10 mi
2:53 AM56 °FClear.7 mph33%30.09 "Hg10 mi
1:53 AM54 °FClear.No wind38%30.10 "Hg10 mi
12:53 AM59 °FClear.6 mph31%30.10 "Hg10 mi
11:53 PM
Nov 26
60 °FClear.3 mph28%30.11 "Hg10 mi
10:53 PM60 °FClear.5 mph30%30.12 "Hg10 mi
9:53 PM63 °FClear.7 mph25%30.13 "Hg10 mi
8:53 PM66 °FClear.6 mph23%30.13 "Hg10 mi
7:53 PM67 °FClear.6 mph22%30.13 "Hg10 mi
6:53 PM71 °FClear.3 mph19%30.13 "Hg10 mi
5:53 PM76 °FClear.3 mph15%30.11 "Hg10 mi
4:53 PM81 °FClear.No wind10%30.11 "Hg10 mi
3:53 PM87 °FSunny.No wind8%30.10 "Hg10 mi
2:53 PM90 °FSunny.5 mph6%30.10 "Hg10 mi
1:53 PM88 °FSunny.6 mph7%30.11 "Hg10 mi
12:53 PM87 °FSunny.5 mph7%30.13 "Hg10 mi
11:53 AM83 °FSunny.6 mph13%30.16 "Hg10 mi
10:53 AM74 °FSunny.No wind18%30.20 "Hg10 mi
9:53 AM69 °FSunny.No wind21%30.23 "Hg10 mi
8:53 AM62 °FSunny.3 mph24%30.23 "Hg10 mi
Weather by CustomWeather, © 2014

See weather overviewHow to use our weather pages